Stations météo

Publicité
Aurillac, France (7549): Température de l'air & dewpoint: 17.01.2017 01:00:00 - 23.01.2017 01:00:00 (CET)Aurillac, France (7549): Température de l'air 5cm: 17.01.2017 01:00:00 - 23.01.2017 01:00:00 (CET)Aurillac, France (7549): Température de l'air -20cm & Température de l'air -100cm: 17.01.2017 01:00:00 - 23.01.2017 01:00:00 (CET)Aurillac, France (7549): Vitesse du vent & gusts: 17.01.2017 01:00:00 - 23.01.2017 01:00:00 (CET)Aurillac, France (7549): Direction du vent: 17.01.2017 01:00:00 - 23.01.2017 01:00:00 (CET)Aurillac, France (7549): reduced air pressure: 17.01.2017 01:00:00 - 23.01.2017 01:00:00 (CET)Aurillac, France (7549): visibility: 17.01.2017 01:00:00 - 23.01.2017 01:00:00 (CET)Aurillac, France (7549): Ensoleillement: 17.01.2017 01:00:00 - 23.01.2017 01:00:00 (CET)Aurillac, France (7549): Quantités de précipitations: 17.01.2017 01:00:00 - 23.01.2017 01:00:00 (CET)
Date & Time tt [°C] td [°C] tt 5cm [°C] tt -20cm [°C] tt -100cm [°C] ff [km/h] ff [knt] fx [km/h] fx [knt] dd ppp [hPa] vv [km] sd [min] rr [mm]
23.01.2017 01:00:00 0,8 -2,1 -0,7 2,3 6,8 0 0 6 3 N 1023,8 14 0 0,0
23.01.2017 00:00:00 1,6 -2,2 -0,6 2,3 6,8 6 3 9 5 E 1024,0 19 0 0,0
22.01.2017 23:00:00 1,0 -2,2 -1,2 2,2 6,8 2 1 8 4 ESE 1024,0 19 0 0,0
22.01.2017 22:00:00 2,1 -2,6 0,0 2,3 6,8 4 2 9 5 NNE 1023,4 15 0 0,0
22.01.2017 21:00:00 2,1 -2,4 0,4 2,2 6,8 4 2 8 4 NNE 1023,4 17 0 0,0
22.01.2017 20:00:00 2,8 -2,5 1,3 2,2 6,8 6 3 7 4 WNW 1023,3 13 0 0,0
22.01.2017 19:00:00 2,5 -2,2 1,3 2,1 6,8 4 2 10 5 W 1023,0 11 0 0,0
22.01.2017 18:00:00 3,0 -2,5 - - - 2 1 5 3 N 1022,5 23 - 0,0
22.01.2017 17:00:00 3,3 -2,0 2,9 2,1 6,8 5 3 15 8 NW 1022,2 32 0 0,0
22.01.2017 16:00:00 4,3 -2,6 - - - 9 5 13 7 WNW 1021,8 50 - -
22.01.2017 15:00:00 5,3 -4,8 6,5 2,1 6,8 2 1 6 3 W 1021,7 45 0 0,0
22.01.2017 14:00:00 4,8 -3,2 5,4 2,1 6,8 5 3 27 15 SE 1022,2 14 0 0,0
22.01.2017 13:00:00 5,2 -7,3 5,4 2,1 6,8 14 8 24 13 SE 1022,3 60 0 0,0
22.01.2017 12:00:00 5,7 -4,5 4,8 2,1 6,8 7 4 21 11 S 1021,7 57 0 0,0
22.01.2017 11:00:00 4,3 -7,2 -0,7 2,1 6,8 11 6 18 10 E 1021,9 59 0 0,0
22.01.2017 10:00:00 -1,9 -5,6 -3,2 2,1 6,9 13 7 17 9 E 1023,3 16 0 0,0
22.01.2017 09:00:00 -2,4 -6,8 -6,3 2,1 6,8 7 4 10 5 NE 1023,1 24 0 0,0
22.01.2017 08:00:00 -4,0 -7,1 -7,1 2,2 6,9 5 3 9 5 ESE 1023,1 20 0 0,0
22.01.2017 07:00:00 -3,7 -7,1 - - - 4 2 8 4 ENE 1022,7 19 - -
22.01.2017 06:00:00 -2,8 -7,0 -7,1 2,2 6,9 4 2 9 5 ENE 1022,5 20 0 0,0
22.01.2017 05:00:00 -1,4 -6,7 -7,8 2,3 6,9 4 2 6 4 NE 1022,8 18 0 0,0
22.01.2017 04:00:00 -3,9 -6,5 -7,6 2,3 6,9 5 3 8 4 E 1023,8 11 0 0,0
22.01.2017 03:00:00 -2,8 -6,6 - - - 4 2 5 3 ENE 1023,8 16 - 0,0
22.01.2017 02:00:00 -3,1 -5,9 -6,4 2,3 6,9 4 2 10 5 E 1024,2 13 0 0,0
22.01.2017 01:00:00 -2,4 -5,9 - - - 5 3 8 4 NE 1024,6 12 - -
22.01.2017 00:00:00 -1,9 -5,7 -6,2 2,4 6,9 4 2 8 5 E 1025,0 18 0 0,0
21.01.2017 23:00:00 -2,2 -6,0 -6,7 2,4 6,9 6 3 8 4 ENE 1025,3 18 0 0,0
21.01.2017 22:00:00 -1,4 -5,6 -6,3 2,4 6,9 3 2 6 3 E 1025,2 20 0 0,0
21.01.2017 21:00:00 -0,6 -5,6 -5,0 2,3 6,9 4 2 8 4 E 1024,9 18 0 0,0
21.01.2017 20:00:00 1,2 -5,3 -2,9 2,4 6,9 7 4 11 6 ENE 1024,3 18 0 0,0
21.01.2017 19:00:00 3,6 -5,4 -3,1 2,3 6,9 8 4 10 6 NNE 1023,6 60 0 0,0
21.01.2017 18:00:00 4,7 -6,0 -1,8 2,2 6,9 4 2 9 5 E 1023,1 60 10 0,0
21.01.2017 17:00:00 7,5 -6,3 6,8 2,2 6,9 7 4 17 9 E 1022,1 60 58 0,0
21.01.2017 16:00:00 8,8 -6,6 10,6 2,1 6,9 10 5 18 10 E 1022,0 60 60 0,0
21.01.2017 15:00:00 9,5 -6,0 12,6 2,1 6,9 8 4 16 9 ESE 1021,9 60 60 0,0
21.01.2017 14:00:00 9,0 -5,3 12,8 2,1 6,9 11 6 18 10 ESE 1022,3 20 60 0,0
21.01.2017 13:00:00 8,1 -5,4 - - - 11 6 18 10 E 1023,4 55 - -
21.01.2017 12:00:00 7,7 -4,4 11,8 2,0 6,9 8 4 13 7 ESE 1024,1 46 60 0,0
21.01.2017 11:00:00 5,7 -3,7 9,5 2,1 6,9 2 1 6 3 ESE 1024,7 10 60 0,0
21.01.2017 10:00:00 3,2 -3,8 -1,0 2,1 6,9 0 0 7 4 N 1025,4 20 60 0,0
21.01.2017 09:00:00 -0,5 -5,3 -5,9 2,1 6,9 5 3 8 5 E 1026,2 20 4 0,0
21.01.2017 08:00:00 0,6 -5,6 - - - 5 3 9 5 E 1025,8 60 - 0,0
21.01.2017 07:00:00 0,0 -6,0 -7,1 2,1 6,9 7 4 11 6 ESE 1025,9 60 0 0,0
21.01.2017 06:00:00 -0,8 -6,6 - - - 5 3 11 6 E 1026,1 60 - 0,0
21.01.2017 05:00:00 0,5 -6,6 -4,6 2,1 6,9 9 5 15 8 ESE 1026,0 60 0 0,0
21.01.2017 04:00:00 -1,5 -6,6 -5,2 2,1 7,0 8 5 16 9 SE 1027,0 60 0 0,0
21.01.2017 03:00:00 0,0 -6,2 -5,0 2,2 7,0 13 7 18 10 E 1027,0 51 0 0,0
21.01.2017 02:00:00 -0,2 -6,0 -7,1 2,2 7,0 9 5 11 6 E 1027,0 56 0 0,0
21.01.2017 01:00:00 -2,0 -6,7 - - - 5 3 15 8 S 1027,8 19 - -
21.01.2017 00:00:00 -0,6 -5,8 - - - 5 3 13 7 E 1027,9 16 - 0,0
20.01.2017 23:00:00 -0,5 -5,3 -5,9 2,2 7,0 10 5 14 8 ESE 1027,9 20 0 0,0
20.01.2017 22:00:00 -0,3 -5,3 -6,1 2,2 7,0 8 4 10 6 SE 1027,9 18 0 0,0
20.01.2017 21:00:00 -1,2 -5,6 -5,2 2,2 7,0 7 4 12 7 SE 1028,1 17 0 0,0
20.01.2017 20:00:00 0,1 -4,7 -4,7 2,2 7,0 8 5 9 5 ESE 1027,5 12 0 0,0
20.01.2017 19:00:00 1,3 -4,6 -3,8 2,1 7,0 4 2 9 5 E 1026,8 20 0 0,0
20.01.2017 18:00:00 3,4 -4,8 -2,8 2,1 7,0 0 0 12 7 N 1026,1 45 23 0,0
20.01.2017 17:00:00 5,9 -4,6 - - - 9 5 15 8 E 1025,5 55 - 0,0
20.01.2017 16:00:00 6,6 -4,8 8,8 2,1 7,0 10 5 20 11 E 1025,5 20 60 0,0
20.01.2017 15:00:00 6,7 -4,4 10,1 2,1 7,0 10 6 16 8 E 1025,6 19 60 0,0
20.01.2017 14:00:00 6,6 -4,8 10,2 2,1 7,0 7 4 14 7 E 1025,8 20 60 0,0
20.01.2017 13:00:00 6,3 -4,5 8,4 2,1 7,0 8 4 18 10 ESE 1026,6 37 60 0,0
20.01.2017 12:00:00 4,7 -3,8 5,4 2,1 7,0 10 5 15 8 E 1027,5 19 60 0,0
20.01.2017 11:00:00 1,5 -5,4 - - - 9 5 16 9 E 1028,8 19 - 0,0
20.01.2017 10:00:00 -2,0 -7,9 -4,9 2,1 7,0 9 5 18 10 E 1029,7 42 60 0,0
20.01.2017 09:00:00 -4,5 -9,3 -8,6 2,1 7,0 13 7 18 10 E 1030,1 47 3 0,0
20.01.2017 08:00:00 -5,6 -10,0 -9,8 2,1 7,0 11 6 18 10 E 1030,2 53 0 0,0
20.01.2017 07:00:00 -7,4 -10,3 -10,0 2,1 7,0 13 7 15 8 ESE 1030,4 44 0 0,0
20.01.2017 06:00:00 -7,6 -9,7 -10,4 2,1 7,0 12 7 14 8 E 1030,4 20 0 0,0
20.01.2017 05:00:00 -7,3 -9,4 -10,4 2,2 7,0 10 5 14 8 ESE 1030,0 20 0 0,0
20.01.2017 04:00:00 -7,3 -9,2 -10,3 2,2 7,1 8 4 12 6 SE 1030,2 17 0 0,0
20.01.2017 03:00:00 -7,5 -8,9 -10,3 2,2 7,1 8 4 12 6 E 1030,5 12 0 0,0
20.01.2017 02:00:00 -6,2 -8,6 -10,8 2,2 7,1 5 3 9 5 ESE 1030,1 14 0 0,0
20.01.2017 01:00:00 -6,2 -8,2 -9,8 2,2 7,1 8 4 10 6 ESE 1030,0 13 0 0,0
20.01.2017 00:00:00 -6,0 -7,8 -9,5 2,2 7,1 6 3 9 5 ESE 1030,4 12 0 0,0
19.01.2017 23:00:00 -4,3 -7,4 -9,1 2,2 7,1 4 2 8 4 E 1030,1 13 0 0,0
19.01.2017 22:00:00 -4,3 -6,8 -8,5 2,2 7,1 5 3 9 5 E 1030,1 13 0 0,0
19.01.2017 21:00:00 -3,4 -6,5 -7,9 2,2 7,1 5 3 8 4 E 1029,7 14 0 0,0
19.01.2017 20:00:00 -2,2 -6,4 -6,6 2,2 7,1 4 2 10 5 ESE 1029,1 12 0 0,0
19.01.2017 19:00:00 -0,7 -6,3 -6,6 2,2 7,1 5 3 8 5 NE 1028,6 19 0 0,0
19.01.2017 18:00:00 1,5 -6,8 -4,2 2,2 7,1 5 3 7 4 SE 1027,4 18 23 0,0
19.01.2017 17:00:00 4,3 -6,9 4,6 2,2 7,1 4 2 10 6 E 1026,3 20 58 0,0
19.01.2017 16:00:00 4,4 -7,1 7,3 2,2 7,1 6 3 9 5 ESE 1026,1 19 60 0,0
19.01.2017 15:00:00 3,9 -7,6 8,9 2,2 7,1 3 1 5 3 NW 1026,5 16 60 0,0
19.01.2017 14:00:00 2,6 -8,7 5,6 2,2 7,1 0 0 10 6 N 1026,9 18 60 0,0
19.01.2017 13:00:00 0,1 -8,4 5,0 2,2 7,1 6 3 9 5 ESE 1028,0 20 60 0,0
19.01.2017 12:00:00 -1,8 -9,2 0,7 2,2 7,1 4 2 11 6 E 1028,9 15 60 0,0
19.01.2017 11:00:00 -4,1 -9,5 -3,6 2,2 7,1 5 3 13 7 E 1029,6 15 60 0,0
19.01.2017 10:00:00 -6,6 -10,5 -8,3 2,2 7,1 6 4 14 8 ESE 1029,8 11 60 0,0
19.01.2017 09:00:00 -8,9 -11,9 -10,6 2,2 7,1 11 6 15 8 E 1029,7 10 3 0,0
19.01.2017 08:00:00 -9,2 -11,6 - - - 11 6 16 9 E 1029,2 10 - 0,0
19.01.2017 07:00:00 -9,5 -11,9 -11,7 2,3 7,1 11 6 16 9 E 1029,1 12 0 0,0
19.01.2017 06:00:00 -9,8 -12,1 - - - 8 4 13 7 ESE 1029,0 12 - 0,0
19.01.2017 05:00:00 -10,0 -12,0 -12,1 2,3 7,1 8 5 13 7 E 1029,1 12 0 0,0
19.01.2017 04:00:00 -9,8 -12,0 -12,6 2,3 7,1 6 4 11 6 E 1029,0 11 0 0,0
19.01.2017 03:00:00 -10,7 -12,3 -13,3 2,3 7,1 9 5 11 6 ESE 1029,1 8 0 0,0
19.01.2017 02:00:00 -9,6 -11,7 -12,5 2,3 7,1 6 4 13 7 ESE 1028,9 11 0 0,0
19.01.2017 01:00:00 -9,8 -11,7 -12,6 2,4 7,1 8 5 11 6 ESE 1028,8 10 0 0,0
19.01.2017 00:00:00 -10,1 -11,9 -12,9 2,3 7,1 6 3 9 5 E 1028,9 6 0 0,0
18.01.2017 23:00:00 -9,2 -11,3 -13,1 2,4 7,1 5 3 7 4 ENE 1028,7 12 0 0,0
18.01.2017 22:00:00 -8,6 -11,3 -12,3 2,4 7,1 4 2 6 3 S 1028,7 7 0 0,0
18.01.2017 21:00:00 -7,7 -10,7 -11,2 2,4 7,2 3 1 9 5 WNW 1028,5 10 0 0,0
18.01.2017 20:00:00 -6,3 -10,3 -9,9 2,4 7,1 8 4 11 6 ESE 1027,9 12 0 0,0
18.01.2017 19:00:00 -5,7 -9,9 -8,0 2,4 7,1 8 4 11 6 SE 1027,8 17 0 0,0
18.01.2017 18:00:00 -4,1 -9,7 - - - 5 3 8 4 SSE 1027,2 18 - 0,0
18.01.2017 17:00:00 -1,6 -9,2 0,3 2,4 7,2 3 2 5 3 SW 1026,1 20 58 0,0
18.01.2017 16:00:00 -0,8 -9,2 2,7 2,4 7,2 4 2 11 6 SW 1025,5 19 60 0,0
18.01.2017 15:00:00 -1,3 -9,4 2,5 2,4 7,2 6 3 16 9 WNW 1025,5 19 60 0,0
18.01.2017 14:00:00 -1,5 -9,4 4,3 2,4 7,2 3 2 9 5 W 1025,7 19 60 0,0
18.01.2017 13:00:00 -2,5 -9,2 1,9 2,4 7,2 2 1 14 8 WNW 1025,9 19 60 0,0
18.01.2017 12:00:00 -3,7 -10,1 - - - 5 3 11 6 WNW 1026,3 18 - 0,0
18.01.2017 11:00:00 -4,2 -9,8 -1,5 2,4 7,2 0 0 14 8 N 1026,7 11 60 0,0
18.01.2017 10:00:00 -7,3 -11,5 -10,2 2,4 7,2 0 0 8 4 N 1027,4 13 60 0,0
18.01.2017 09:00:00 -10,6 -12,8 -14,7 2,5 7,2 5 3 10 5 SSE 1028,2 12 2 0,0
18.01.2017 08:00:00 -11,5 -13,0 -14,6 2,5 7,2 4 2 8 4 E 1028,2 13 0 0,0
18.01.2017 07:00:00 -11,0 -12,6 -14,8 2,5 7,2 6 3 9 5 NW 1027,1 15 0 0,0
18.01.2017 06:00:00 -11,0 -12,7 - - - 4 2 11 6 E 1027,1 14 - 0,0
18.01.2017 05:00:00 -11,3 -13,3 -14,0 2,5 7,2 3 1 11 6 ESE 1027,8 17 0 0,0
18.01.2017 04:00:00 -10,6 -12,6 -13,8 2,5 7,2 4 2 9 5 ENE 1027,6 19 0 0,0
18.01.2017 03:00:00 -9,6 -12,1 -13,4 2,6 7,2 3 1 6 3 E 1027,3 18 0 0,0
18.01.2017 02:00:00 -9,1 -12,1 -12,5 2,6 7,2 4 2 6 3 W 1027,1 15 0 0,0
18.01.2017 01:00:00 -8,3 -12,3 - - - 0 0 15 8 N 1027,0 40 - -
18.01.2017 00:00:00 -7,2 -11,0 -10,7 2,6 7,2 0 0 20 11 N 1026,7 48 0 0,0
17.01.2017 23:00:00 -6,4 -11,0 - - - 5 3 16 9 WSW 1026,3 23 - 0,0
17.01.2017 22:00:00 -6,3 -11,2 -9,3 2,7 7,2 9 5 28 15 WSW 1025,9 20 0 0,0
17.01.2017 21:00:00 -4,4 -11,2 -8,3 2,6 7,2 9 5 31 17 E 1025,1 56 0 0,0
17.01.2017 20:00:00 -4,2 -11,2 -9,0 2,7 7,2 13 7 26 14 NE 1025,3 47 0 0,0
17.01.2017 19:00:00 -4,0 -11,7 -7,7 2,7 7,2 5 3 26 14 N 1024,7 60 0 0,0
17.01.2017 18:00:00 -3,0 -12,0 -4,3 2,7 7,2 16 8 34 18 N 1023,9 60 22 0,0
17.01.2017 17:00:00 -1,7 -12,4 - - - 16 9 39 21 N 1023,1 55 - 0,0
17.01.2017 16:00:00 0,2 -15,4 - - - 21 11 42 23 NNE 1022,3 45 - -
17.01.2017 15:00:00 1,2 -14,5 2,0 2,7 7,2 19 10 59 32 NNE 1021,5 20 60 0,0
17.01.2017 14:00:00 1,1 -16,3 - - - 29 16 54 29 NE 1021,2 40 - 0,0
17.01.2017 13:00:00 0,9 -15,6 1,4 2,7 7,2 18 10 58 31 N 1021,2 20 - 0,0
17.01.2017 12:00:00 -0,4 -14,7 0,5 2,7 7,2 28 15 74 40 NNE 1021,5 60 60 0,0
17.01.2017 11:00:00 -1,0 -14,6 -0,6 2,7 7,2 19 11 41 22 N 1022,2 60 60 0,0
17.01.2017 10:00:00 -4,3 -11,1 - - - 13 7 34 18 W 1023,4 60 - -
17.01.2017 09:00:00 -3,9 -12,8 -6,2 2,8 7,2 14 8 37 20 N 1023,4 59 2 0,0
17.01.2017 08:00:00 -4,5 -12,4 -7,0 2,9 7,2 22 12 46 25 NNE 1023,7 60 0 0,0
17.01.2017 07:00:00 -5,4 -11,7 -7,3 2,9 7,2 16 9 30 16 N 1023,9 60 0 0,0
17.01.2017 06:00:00 -5,7 -12,0 -9,2 3,0 7,2 9 5 18 10 NNW 1024,1 60 0 0,0
17.01.2017 05:00:00 -6,1 -12,2 -8,8 3,0 7,2 5 3 22 12 NW 1024,4 60 0 0,0
17.01.2017 04:00:00 -5,3 -12,1 -6,8 3,1 7,2 13 7 23 13 NNW 1024,5 60 0 0,0
17.01.2017 03:00:00 -5,1 -10,7 -6,8 3,1 7,2 16 8 24 13 NNW 1024,5 60 0 0,0
17.01.2017 02:00:00 -4,6 -10,8 -6,3 3,1 7,2 11 6 24 13 N 1024,6 60 0 0,0
17.01.2017 01:00:00 -4,0 -11,3 -6,0 3,2 7,2 10 5 19 10 N 1024,5 60 0 0,0

tt = Température de l'air
td = dewpoint
tt 5cm = Température de l'air 5cm
tt -20cm = Température de l'air -20cm
tt -100cm = Température de l'air -100cm
ff = Vitesse du vent
fx = gusts
dd = Direction du vent
ppp = reduced air pressure
vv = visibility
sd = Ensoleillement
rr = Quantités de précipitations

stations d'obs. à proximité